Location: Palmerston North
(40.3500°S, 175.6170°E)
Time: 11:44:19
(UTC+13:00)

Daily predictions for brighter satellites

Satellite Brightness Start Highest point End
(mag) Time Altitude Azimuth Time Altitude Azimuth Time Altitude Azimuth
Meteor 1-11 4.3 20:06:28 10° N 20:12:12 63° E 20:17:57 10° SSE
Cosmos 2123 Rocket 4.1 20:06:14 10° S 20:12:40 90° ESE 20:19:02 10° N
Cosmos 1455 2.3 20:08:51 10° S 20:12:48 86° W 20:16:43 10° N
ISS -3.6 20:09:55 10° NW 20:13:17 80° SW 20:16:43 10° SE
Cosmos 1656 Rocket 4.2 20:10:07 10° SSW 20:15:48 64° WNW 20:21:24 10° N
YAOGAN 6 2.7 20:13:35 10° SSE 20:17:22 64° E 20:21:04 10° N
Okean-O 3.3 20:13:32 10° S 20:18:00 63° WSW 20:22:25 10° NNW
Aureole 2 Rocket 2.1 20:16:17 10° S 20:19:01 48° ESE 20:21:38 10° NE
NOAA 12 4.3 20:14:11 10° S 20:19:30 80° WSW 20:24:46 10° NNW
Cosmos 1703 3.9 20:20:09 10° NNW 20:24:01 62° W 20:27:58 10° S
CZ-4 R/B 4.4 20:21:54 10° SSE 20:26:08 78° ENE 20:30:18 10° N
Cosmos 1354 Rocket 4.3 20:24:06 10° NNW 20:29:24 76° WSW 20:34:48 10° SSE
Cosmos 1605 Rocket 4.1 20:26:40 10° N 20:32:47 83° W 20:39:05 10° S
Cosmos 1833 Rocket 4.2 20:29:47 10° NE 20:32:57 15° E 20:36:06 10° ESE
Envisat 3.5 20:31:30 10° S 20:36:38 68° WSW 20:41:42 10° NNW
Cosmos 1867 3.8 20:31:40 10° SSW 20:37:01 57° SE 20:41:44 13° NE
Cosmos 1340 Rocket 3.6 20:33:11 10° SSW 20:37:09 54° W 20:41:00 10° N
H-2A R/B 3.9 20:41:08 10° ESE 20:42:25 11° E 20:42:25 11° E
Cosmos 2173 Rocket 4.1 20:44:20 10° NNE 20:50:11 50° E 20:56:07 10° SSE
Cosmos 1777 Rocket 4.2 20:45:24 10° N 20:50:25 49° ENE 20:55:31 10° SSE
CZ-2D R/B 3.2 20:47:43 10° SSE 20:51:35 64° E 20:55:23 10° N
Cosmos 1939 Rocket 2.8 20:49:35 10° SSE 20:53:30 59° E 20:57:21 10° N
YAOGAN 1 2.9 20:51:17 10° S 20:55:41 71° WSW 21:00:00 10° NNW
CZ-4C R/B 2.9 20:49:39 10° NNW 20:57:52 78° ENE 21:05:05 10° SE
Cosmos 1802 Rocket 4.2 20:54:38 10° NNE 21:00:38 50° E 21:06:37 10° SSE
Cosmos 1869 3.5 20:59:18 10° S 21:03:19 54° E 21:05:39 23° NNE
Cosmos 1538 Rocket 4.4 20:58:35 10° S 21:03:39 45° ESE 21:06:28 24° NE
CSL-04 Rocket 3.9 20:58:25 10° S 21:04:01 76° WSW 21:09:35 10° NNW
Cosmos 2082 Rocket 3.5 21:05:24 19° E 21:05:24 19° E 21:08:51 10° SE
GPS 2-04 Rocket1 3.2 21:05:10 10° WNW 21:08:24 34° N 21:09:00 31° NNE
DELTA 2 R/B (1) 3.6 21:02:57 10° W 21:08:38 83° N 21:12:30 21° E
Cosmos 2221 3.4 21:06:10 10° SSW 21:10:26 50° W 21:14:37 10° NNW
Cosmos 1766 Rocket 4.2 21:09:15 27° NE 21:10:58 37° E 21:15:08 10° SSE
PSLV R/B 3.7 21:09:02 10° W 21:11:29 32° NNW 21:11:38 32° NNW
ARGOS 4.4 21:07:25 10° SE 21:11:27 21° E 21:11:27 21° E
Cosmos 1892 3.3 21:11:34 33° ENE 21:12:14 36° E 21:15:48 10° SSE
Lacrosse 4 Rocket 3.7 21:11:07 10° SSE 21:13:10 13° SE 21:14:28 12° ESE
Cosmos 1725 Rocket 4.4 21:09:16 18° NNE 21:13:37 41° E 21:19:31 10° SSE
BREEZE-M DEB (TANK) 3.9 21:16:18 10° SSW 21:18:02 16° SSE 21:19:48 12° SE
Cosmos 1076 Rocket 4.1 21:14:03 10° NNW 21:18:17 58° W 21:22:34 10° S
Cosmos 2100 Rocket 4.0 21:12:15 10° N 21:18:27 89° W 21:24:49 10° S
Ariane Rocket 2.9 21:14:06 10° SSE 21:19:16 76° ENE 21:24:22 10° N
Lacrosse 5 rocket 3.8 21:16:47 10° N 21:16:52 10° N 21:16:52 10° N
USA 229 DEB 3.6 21:14:12 10° SW 21:21:06 83° WNW 21:25:18 24° NNE
USA 229 3.6 21:14:14 10° SW 21:21:10 84° WNW 21:25:22 24° NNE
ATLAS CENTAUR R/B 4.1 21:05:35 10° NW 21:21:34 73° SW 21:27:09 10° SE
Cosmos 1697 Rocket 3.8 21:17:04 10° S 21:22:00 29° SE 21:23:50 24° E
Cosmos 1408 Rocket 4.4 21:21:55 32° E 21:22:01 32° E 21:26:03 10° SSE
Okean 3 Rocket 3.5 21:19:49 19° N 21:22:59 68° E 21:27:26 10° SSE
COSMOS 2406 3.2 21:17:23 10° NNW 21:23:05 89° WSW 21:28:50 10° SSE
NOAA 11 4.3 21:17:34 10° S 21:23:10 79° WSW 21:28:40 10° NNW
BREEZE-M DEB (TANK) 4.5 21:18:54 10° SW 21:23:16 51° SSE 21:34:08 17° E
Cosmos 2058 3.2 21:19:54 10° NNW 21:24:03 70° W 21:28:15 10° S
CZ-4 R/B 4.0 21:22:10 10° SSW 21:25:19 23° WSW 21:28:30 10° WNW
MOS 1 Rocket 3.9 21:24:44 34° ENE 21:26:04 42° ESE 21:30:51 10° S
NOSS 3-1 (A) 3.4 21:21:00 10° SSW 21:27:20 65° SE 21:29:46 34° ENE
FREGAT/IRIS 2.7 21:24:40 10° SSE 21:27:07 59° SE 21:27:07 59° SE
In-Cosmos 22 Rocket 4.2 21:22:15 10° N 21:28:02 78° E 21:33:58 10° SSE
USA 215 3.5 21:26:05 10° ESE 21:32:19 43° NE 21:38:30 10° NNW
USA 186 2.0 21:28:58 10° SSE 21:32:00 55° ESE 21:32:00 55° ESE
Cosmos 2016 Rocket 4.0 21:28:57 10° N 21:35:20 79° E 21:41:45 10° S
Cosmos 2369 4.4 21:30:01 10° S 21:35:23 39° ESE 21:36:53 33° E
Cosmos 2151 2.8 21:36:44 37° N 21:38:22 79° E 21:42:41 10° S
CZ-2C R/B 4.2 21:35:01 10° SE 21:38:41 27° ESE 21:38:41 27° ESE
MOS 1 4.2 21:34:43 10° SSE 21:40:31 73° ENE 21:44:50 18° N
NOSS 3-1 (C) 3.5 21:35:39 10° SW 21:41:49 65° WNW 21:44:19 33° N
SJ-6B 2.9 21:37:48 10° SSE 21:41:47 57° E 21:41:47 57° E
CZ-2C R/B 3.0 21:39:24 19° N 21:43:07 59° W 21:48:18 10° SSW
SL-08 R/B 4.4 21:38:54 19° N 21:43:33 77° E 21:49:54 10° S
Atlas 2A Centaur Rocket 4.3 21:17:24 10° WNW 21:43:55 39° NNW 21:46:52 30° NNE
ISS -1.0 21:48:00 10° WSW 21:50:28 18° SSW 21:52:57 10° SSE
BREEZE-M R/B 3.9 21:41:06 10° WSW 21:51:08 59° SSE 21:51:48 50° ESE
Cosmos 1656 3.6 21:49:17 10° SSW 21:55:02 87° ESE 21:56:36 51° NNE
Cosmos 1408 3.9 21:57:07 30° SSE 21:57:07 30° SSE 21:59:09 10° SSE
Cosmos 1356 Rocket 4.3 21:55:55 10° SSW 21:59:54 44° W 22:00:59 35° NW
Cosmos 2112 Rocket 4.5 21:58:56 10° S 22:04:06 45° ESE 22:04:11 45° ESE
Cosmos 2278 4.0 21:59:53 10° SSW 22:05:27 50° ESE 22:05:57 49° E
SPOT 3 Rocket 3.4 22:01:47 10° SSE 22:07:01 80° ENE 22:07:46 65° N
NOSS 2-3 (C) 4.1 22:05:01 10° SW 22:11:45 88° WNW 22:12:32 68° NNE
Cosmos 1980 Rocket 2.8 22:09:22 10° S 22:14:43 41° ESE 22:14:45 41° ESE
Cosmos 1833 Rocket 2.9 22:10:31 10° NNW 22:16:10 71° WSW 22:21:53 10° SSE
Resurs 01 Rocket 3.2 22:12:00 10° SSE 22:14:09 26° SE 22:14:09 26° SE
Cosmos 1680 Rocket 3.5 22:14:54 10° SSW 22:20:09 73° ESE 22:20:09 73° ESE
Cosmos 1515 Rocket 4.1 22:17:34 10° S 22:21:09 56° S 22:21:09 56° S
H-2A R/B 2.0 22:17:33 10° S 22:22:36 78° WSW 22:23:03 71° NW
SJ 16-02 3.5 22:27:06 18° SSE 22:27:06 18° SSE 22:28:20 10° SSE
Tsikada Rocket 4.1 22:18:54 10° SSW 22:25:07 70° W 22:26:44 49° NNW
Mayak 0.6 22:30:32 24° SSE 22:30:32 24° SSE 22:32:36 10° S
Meteor 2-3 Rocket 4.0 22:30:37 58° SE 22:30:37 58° SE 22:35:33 10° SSE
Cosmos 1151 Rocket 4.0 22:30:09 10° SSW 22:33:48 45° WSW 22:33:48 45° WSW
Cosmos 923 Rocket 4.3 22:29:12 10° SSW 22:34:32 63° WNW 22:34:36 63° WNW
ATLAS CENTAUR Rocket 4.0 22:06:50 10° WNW 22:37:35 43° NNW 22:38:39 42° N
Cosmos 1825 4.2 22:44:05 27° SSW 22:44:05 27° SSW 22:46:09 10° S
Thor Agena Rocket 4.3 22:45:27 44° W 22:45:30 44° W 22:50:24 10° SSW
Meteor 1-26 Rocket 4.4 22:40:34 10° S 22:45:15 63° SSE 22:45:15 63° SSE
Cosmos 2082 Rocket 2.7 22:47:05 44° WNW 22:48:30 56° WSW 22:54:06 10° SSE
ARGOS 3.9 22:46:45 10° S 22:51:59 49° WSW 22:52:58 44° WNW
Lacrosse 4 Rocket 2.9 22:47:58 10° SSW 22:50:47 37° SSW 22:50:47 37° SSW
DELTA 2 R/B (1) 4.4 22:49:25 10° W 22:53:16 43° W 22:53:16 43° W
Cosmos 2228 Rocket 4.5 22:54:15 10° SSW 22:57:11 37° SSW 22:57:11 37° SSW
Lacrosse 5 rocket 4.4 23:04:11 11° SSE 23:04:11 11° SSE 23:04:18 10° SE
Cosmos 1697 Rocket 3.6 23:00:46 10° SW 23:05:35 40° W 23:05:35 40° W
USA 215 3.8 23:08:57 10° SE 23:15:23 57° SW 23:21:47 10° WNW
SL-16 R/B 3.4 23:12:09 10° S 23:16:05 35° SSE 23:16:05 35° SSE
CZ-2C R/B 4.3 23:14:33 10° S 23:19:29 38° WSW 23:19:45 38° WSW
Cosmos 2322 Rocket 3.5 23:40:00 10° SSW 23:43:34 37° S 23:43:34 37° S
USA 267 3.6 23:49:25 62° SSW 23:49:25 62° SSW 23:54:55 10° SW
Resurs 01 Rocket 4.2 23:49:31 10° SSW 23:51:43 17° SW 23:51:43 17° SW
Cosmos 2360 Rocket 3.8 23:47:48 10° S 23:51:06 27° SSE 23:51:06 27° SSE
